#timestamp,LO_Frequency,Hit,StdDev 
1558054815.8,286047001.5,N
1558054835.7,286047002.4,N
1558054855.5,286047002.4,N
1558054875.3,286047002.5,N
1558054895.2,286047002.8,N
1558054915.0,286047000.1,N
1558054915.9,286047000.1,N
1558054935.7,286047000.9,N
1558054955.6,286047001.0,N
1558054975.4,286047000.7,N
1558054995.3,286047000.9,N
1558055015.1,286046998.6,N
1558055016.0,286046998.6,N
1558055035.8,286046999.3,N
1558055055.7,286047000.9,N
1558055075.5,286046998.9,N
1558055095.4,286046998.4,N
1558055115.2,286047000.8,N
1558055135.0,286047000.7,N
1558055135.9,286047000.7,N
1558055155.8,286047000.8,N
1558055175.6,286046996.6,N
1558055195.4,286046999.1,N
1558055215.3,286046999.2,N
1558055235.1,286046997.9,N
1558055255.9,286046994.9,Y
1558055275.7,286046995.2,P
1558055295.5,286046995.2,N
1558055315.4,286046997.5,N
1558055335.2,286046999.2,N
1558055355.1,286046998.6,N
1558055356.0,286046998.6,N
1558055375.8,286047000.7,N
1558055395.6,286047000.1,N
1558055415.5,286047000.1,N
1558055435.3,286047000.0,N
1558055455.1,286047001.2,N
1558055475.9,286046998.4,N
1558055495.7,286046998.2,N
1558055515.6,286046998.4,N
1558055535.4,286047001.0,N
1558055555.2,286047000.8,N
1558055575.1,286046998.5,N
1558055576.0,286046998.5,N
1558055595.8,286046996.5,N
1558055615.6,286046996.8,N
1558055635.5,286046999.6,N
1558055655.3,286046996.6,N
1558055675.2,286046997.5,N
1558055695.9,286046996.5,N
1558055715.7,286046996.8,N
1558055735.6,286046995.7,N
1558055755.4,286046998.0,N
1558055775.2,286046995.4,N
1558055795.1,286046995.1,N
1558055796.0,286046995.1,N
1558055815.8,286046997.4,N
1558055835.7,286046997.3,N
1558055855.5,286046996.9,N
1558055875.3,286046997.1,N
1558055895.2,286046997.3,N
1558055915.0,286046997.0,N
1558055915.9,286046997.0,N
1558055935.7,286046999.5,N
1558055955.6,286046999.4,N
1558055975.4,286046998.7,N
1558055995.3,286046998.3,N
1558056015.1,286047000.8,N
1558056016.0,286047000.8,N
1558056035.8,286046999.1,N
1558056055.7,286046998.1,N
1558056075.5,286046998.4,N
1558056095.3,286046998.2,N
1558056115.2,286047000.6,N
1558056135.0,286046999.8,N
1558056135.9,286046999.8,N
1558056155.8,286047001.6,N
1558056175.6,286047003.0,N
1558056195.4,286047003.9,N
1558056215.3,286047003.6,N
1558056235.1,286047001.4,N
1558056255.8,286047004.3,N
1558056275.7,286047001.6,N
1558056295.5,286047001.9,N
1558056315.4,286047002.2,N
1558056335.2,286047004.2,N
1558056355.0,286047004.4,N
1558056355.9,286047004.4,N
1558056375.8,286047004.7,N
1558056395.6,286047007.5,Y
1558056415.4,286047004.5,P
1558056435.3,286047003.3,N
1558056455.1,286047003.3,N
1558056475.9,286047003.5,N
1558056495.7,286047004.0,Y
1558056515.5,286047001.1,P
1558056535.4,286046998.9,N
1558056555.2,286046996.6,N
1558056575.0,286046996.8,N
1558056576.0,286046996.8,N
1558056595.8,286046999.5,N
1558056615.6,286046999.6,N
1558056635.5,286046998.4,N
1558056655.3,286046999.4,N
1558056675.1,286046998.8,N
1558056695.9,286046998.9,N
1558056715.7,286046997.4,N
1558056735.6,286046997.3,N
1558056755.4,286046999.5,N
1558056775.2,286046997.0,N
1558056795.1,286046997.7,N
1558056796.0,286046997.7,N
1558056815.8,286046996.7,N
1558056835.6,286046997.5,N
1558056855.5,286046996.9,N
1558056875.3,286046996.9,N
1558056895.2,286046995.3,N
1558056915.9,286046995.1,N
1558056935.7,286046997.6,N
1558056955.6,286046998.0,N
1558056975.4,286046995.9,N
1558056995.3,286046995.8,N
1558057015.1,286046996.9,N
1558057016.0,286046996.9,N
1558057035.8,286047000.5,N
1558057055.7,286047000.5,N
1558057075.5,286047000.7,N
1558057095.3,286046998.6,N
1558057115.2,286046998.1,N
1558057135.0,286047001.1,N
1558057135.9,286047001.1,N
1558057155.8,286046998.2,N
1558057175.6,286047000.5,N
1558057195.4,286046999.0,N
1558057215.3,286046998.1,N
1558057235.1,286046996.6,N
1558057255.8,286046997.4,N
1558057275.7,286046997.0,N
1558057295.5,286046997.6,N
1558057315.4,286046997.8,N
1558057335.2,286046996.9,N
1558057355.0,286046996.9,N
1558057355.9,286046996.9,N
1558057375.8,286046997.2,N
1558057395.6,286046996.5,N
1558057415.5,286046999.1,N
1558057435.3,286046996.6,N
1558057455.1,286046997.7,N
1558057475.9,286046997.0,N
1558057495.7,286046996.9,N
1558057515.5,286046998.1,N
1558057535.4,286046998.6,N
1558057555.2,286046998.6,N
1558057575.1,286047001.2,N
1558057576.0,286047001.2,N
1558057595.8,286047000.9,N
1558057615.6,286046999.8,N
1558057635.5,286046999.7,N
1558057655.3,286047002.7,N
1558057675.2,286047000.2,N
1558057695.9,286046999.7,N
1558057715.7,286046998.4,N
1558057735.6,286047001.0,N
1558057755.4,286046999.0,N
1558057775.2,286046999.4,N
1558057795.1,286046997.1,N
1558057796.0,286046997.1,N
1558057815.8,286046999.4,N
1558057835.7,286046998.3,N
1558057855.5,286046999.2,N
1558057875.3,286046998.1,N
1558057895.2,286047002.7,N
1558057915.9,286047002.0,N
1558057935.7,286047001.8,N
1558057955.6,286047002.4,N
1558057975.4,286047002.2,N
1558057995.2,286047002.3,N
1558058015.1,286046998.9,N
1558058016.0,286046998.9,N
1558058035.8,286046997.8,N
1558058055.7,286046999.1,N
1558058075.5,286046999.0,N
1558058095.3,286046996.6,N
1558058115.2,286047001.0,N
1558058135.0,286047000.8,N
1558058135.9,286047000.8,N
1558058155.8,286046996.5,N
1558058175.6,286046996.8,N
1558058195.4,286046999.0,N
1558058215.3,286046998.3,N
1558058235.1,286046998.3,N
1558058255.8,286046999.4,N
1558058275.7,286046998.6,N
1558058295.5,286047000.2,N
1558058315.4,286047000.4,N
1558058335.2,286047000.5,N
1558058355.0,286046997.1,N
1558058355.9,286046997.1,N
1558058375.8,286046997.5,N
1558058395.6,286046997.9,N
